Home   Weather   Oslo   Past weeks

Flag for Norway Past Weather in Oslo, Norway — Yesterday and Last 2 Weeks

Now
27 °F

Chilly.


Feels Like: 27 °F
Forecast: 14 / 23 °F
Wind: 1 mph from West

Location: Oslo-Blindern

Current Time: Jan 16, 2017 at 12:10:13 pm

Latest Report: Jan 16, 2017 at 11:00 am


Visibility: 31 mi

Pressure: 30.38 "Hg

Humidity: 70%

Dew Point: 18 °F

Location of OsloLocation

Past Weather in Oslo — Graph

°F

Oslo Temperature Yesterday

Maximum temperature yesterday: 30 °F (at 1:00 pm)
Minimum temperature yesterday: 18 °F (at 10:00 pm)
Average temperature yesterday: 23 °F

High & Low Weather Summary for the Past Weeks

 TemperatureHumidityPressure
High42 °F (Jan 11, 3:00 am)100% (Jan 9, 1:00 pm)30.68 "Hg (Jan 9, 1:00 pm)
Low10 °F (Jan 6, 6:00 am)47% (Jan 4, 10:00 am)28.50 "Hg (Jan 11, 4:00 pm)
Average28 °F82%29.74 "Hg
* Reported Jan 1 11:00 am — Jan 16 11:00 am, Oslo, Weather by CustomWeather, © 2017

Note: Actual official high and low records may vary slightly from our data, if they occured in-between our weather recording intervals... More about our weather records

Advertising

Oslo Weather History for the Previous 24 Hours

Scroll right to see more
 ConditionsComfort  
Time TempWeatherWind HumidityBarometerVisibility
11:00 am
Mon, Jan 16
27 °FChilly.1 mph70%30.38 "Hg31 mi
10:00 am22 °FScattered clouds.1 mph78%30.37 "Hg47 mi
9:00 am20 °FCold.2 mph83%30.36 "Hg31 mi
8:00 am19 °FCold.1 mph83%30.33 "HgN/A
7:00 am19 °FPassing clouds.1 mph85%30.31 "Hg47 mi
6:00 am18 °FCold.1 mph86%30.30 "Hg31 mi
5:00 am19 °FCold.1 mph83%30.29 "Hg31 mi
4:00 am18 °FCold.1 mph82%30.29 "Hg31 mi
3:00 am18 °FCold.1 mph83%30.29 "Hg25 mi
2:00 am17 °FCold.1 mph83%30.26 "HgN/A
1:00 am17 °FCold.1 mph85%30.26 "Hg19 mi
12:00 am18 °FCold.1 mph83%30.25 "Hg13 mi
11:00 pm
Sun, Jan 15
19 °FCold.1 mph83%30.23 "Hg13 mi
10:00 pm18 °FClear.1 mph83%30.22 "Hg40 mi
9:00 pm21 °FCold.1 mph77%30.20 "Hg12 mi
8:00 pm20 °FCold.1 mph76%30.18 "Hg18 mi
7:00 pm22 °FClear.1 mph74%30.18 "Hg47 mi
6:00 pm23 °FCold.1 mph69%30.16 "Hg22 mi
5:00 pm25 °FChilly.1 mph64%30.13 "Hg31 mi
4:00 pm28 °FPassing clouds.2 mph56%30.11 "Hg47 mi
3:00 pm30 °FChilly.2 mph53%30.09 "Hg31 mi
2:00 pm29 °FChilly.1 mph60%30.07 "Hg31 mi
1:00 pm30 °FChilly.1 mph58%30.06 "Hg31 mi
12:00 pm28 °FChilly.1 mph60%30.03 "Hg31 mi
Weather by CustomWeather, © 2017

See weather overviewHow to use our weather pages